sat.trackr.live / text

‹ back to catalog

STARLINK-34764

NORAD 65098 · 2025-167W

PAYLOAD ACTIVE UNKNOWN

§ Identity

Operator
Country
US
Launch date
2025-08-04
Launch site
AFETR
Launch vehicle
Mass (kg)
RCS (m²)

Purposes: comms

External: N2YO · Heavens-Above · Gunter

§ Orbital elements

Epoch: 2026-09-20T05:11:50.595648Z

Period
93.85 min
Inclination
53.1578°
Eccentricity
0.0001506
Mean motion
15.34406545 rev/d
Perigee alt
461.7 km
Apogee alt
463.7 km
Semi-major
6,840.8 km
B*
3.1340e-4
RAAN
198.7794°
Arg perigee
102.5147°
Mean anomaly
257.6024°
Rev number
6,332

§ Raw data

STARLINK-347641 65098U 25167W   26263.21655782  .00010229  00000+0  31340-3 0  99912 65098  53.1578 198.7794 0001506 102.5147 257.6024 15.34406545 63323

JSON: /api/v1/satellites/65098 · /tle

For live sub-satellite position, see the globe view (requires WebGL).

§ Visibility from observer

Set your observer location to see the next 7 days of passes ≥ 10°. The values pass through the URL so the page stays shareable.

No JS? Fill the form by hand. The geolocation button needs JavaScript.